Location: Baumgarten
(49.0970°N, 12.7493°E)
Time: 03:01:12
(UTC+00:00)

Cosmos 2333 Rocket - Pass Details

Date: 05 July 2020
Orbit: 837 x 864 km, 70.8° (Epoch: 04 August)

Event Time Altitude Azimuth Distance (km) Brightness Sun altitude
Rises 20:40:04 0° 195° (SSW) 3,390 5.0 -10.5°
Reaches altitude 10° 20:42:30 10° 192° (SSW) 2,463 4.2 -10.7°
Maximum altitude 20:48:05 62° 113° (ESE) 956 2.3 -11.2°
Drops below altitude 10° 20:53:44 10° 34° (NE) 2,498 5.0 -11.7°
Sets 20:56:13 0° 31° (NNE) 3,442 5.8 -12.0°
